When you browse on this site, cookies collect data to enhance your experience and personalize the content and advertising you see.
Visit our Privacy Policy to learn more. By continuing to use the site, you agree to this use of cookies and data.
  • Em Portugal
  • Lista de países
  • Para 7 dias
  • Temperatura da água
  • Mapas de satélite
  • Mapa do tempo
  • Widgets de tempo
  • user-avatar
    Iniciar Sessão

    Previsão horária em Osintorf

    Hoje, 26 Abril, Sexta-feira

    Tempo Temperatura Precipitação Vento Pressão Humidade
    00:00 +13°C° 0 mm 2 m/s 750 mmHg 59%
    01:00 +13°C° 0 mm 2 m/s 750 mmHg 61%
    02:00 +10°C° 0 mm 1 m/s 750 mmHg 63%
    03:00 +10°C° 0 mm 1 m/s 750 mmHg 64%
    04:00 +10°C° 0 mm 1 m/s 750 mmHg 64%
    05:00 +10°C° 0 mm 1 m/s 750 mmHg 65%
    06:00 +12°C° 0 mm 2 m/s 750 mmHg 61%
    07:00 +14°C° 0 mm 2 m/s 749 mmHg 58%
    08:00 +16°C° 0 mm 2 m/s 749 mmHg 54%
    09:00 +18°C° 0 mm 3 m/s 749 mmHg 49%
    10:00 +19°C° 0 mm 3 m/s 749 mmHg 45%
    11:00 +21°C° 0 mm 4 m/s 749 mmHg 40%
    12:00 +21°C° 0 mm 4 m/s 748 mmHg 40%
    13:00 +21°C° 0 mm 4 m/s 748 mmHg 39%
    14:00 +22°C° 0 mm 4 m/s 748 mmHg 38%
    15:00 +21°C° 0 mm 3 m/s 748 mmHg 40%
    16:00 +21°C° 0 mm 3 m/s 747 mmHg 42%
    17:00 +21°C° 0 mm 3 m/s 747 mmHg 44%
    18:00 +19°C° 0 mm 3 m/s 747 mmHg 49%
    19:00 +17°C° 0 mm 2 m/s 746 mmHg 54%
    20:00 +15°C° 0 mm 2 m/s 746 mmHg 59%
    21:00 +14°C° 0 mm 2 m/s 746 mmHg 59%
    22:00 +14°C° 0 mm 2 m/s 746 mmHg 59%
    23:00 +13°C° 0 mm 2 m/s 746 mmHg 59%

    Amanhã, 27 Abril, Sábado

    Tempo Temperatura Precipitação Vento Pressão Humidade
    00:00 +13°C° 0 mm 2 m/s 746 mmHg 60%
    01:00 +12°C° 0 mm 2 m/s 745 mmHg 60%
    02:00 +12°C° 0 mm 2 m/s 745 mmHg 61%
    03:00 +10°C° 0 mm 2 m/s 745 mmHg 62%
    04:00 +10°C° 0 mm 2 m/s 744 mmHg 64%
    05:00 +9°C° 0 mm 2 m/s 744 mmHg 66%
    06:00 +12°C° 0 mm 2 m/s 744 mmHg 65%
    07:00 +14°C° 0 mm 2 m/s 744 mmHg 63%
    08:00 +16°C° 0 mm 2 m/s 744 mmHg 62%
    09:00 +18°C° 0 mm 3 m/s 743 mmHg 59%
    10:00 +19°C° 0 mm 3 m/s 743 mmHg 56%
    11:00 +21°C° 0 mm 3 m/s 743 mmHg 53%
    12:00 +22°C° 0.1 mm 3 m/s 742 mmHg 53%
    13:00 +23°C° 0.1 mm 2 m/s 742 mmHg 52%
    14:00 +24°C° 0.1 mm 2 m/s 741 mmHg 52%
    15:00 +23°C° 0.4 mm 2 m/s 741 mmHg 54%
    16:00 +23°C° 0.4 mm 1 m/s 741 mmHg 55%
    17:00 +22°C° 0.4 mm 1 m/s 741 mmHg 57%
    18:00 +21°C° 0.1 mm 1 m/s 740 mmHg 65%
    19:00 +19°C° 0.1 mm 1 m/s 740 mmHg 72%
    20:00 +16°C° 0.1 mm 1 m/s 740 mmHg 79%
    21:00 +15°C° 0.1 mm 1 m/s 740 mmHg 82%
    22:00 +15°C° 0.1 mm 1 m/s 740 mmHg 84%
    23:00 +14°C° 0.1 mm 1 m/s 740 mmHg 87%

    Depois de amanhã, 28 Abril, Domingo

    Tempo Temperatura Precipitação Vento Pressão Humidade
    00:00 +14°C° 0 mm 1 m/s 740 mmHg 87%
    01:00 +13°C° 0 mm 1 m/s 740 mmHg 88%
    02:00 +13°C° 0 mm 1 m/s 741 mmHg 89%
    03:00 +12°C° 0 mm 1 m/s 741 mmHg 88%
    04:00 +12°C° 0 mm 2 m/s 741 mmHg 87%
    05:00 +12°C° 0 mm 2 m/s 741 mmHg 86%
    06:00 +12°C° 0 mm 3 m/s 741 mmHg 81%
    07:00 +13°C° 0 mm 4 m/s 742 mmHg 76%
    08:00 +14°C° 0 mm 5 m/s 742 mmHg 70%
    09:00 +15°C° 0 mm 5 m/s 743 mmHg 68%
    10:00 +16°C° 0 mm 5 m/s 743 mmHg 66%
    11:00 +17°C° 0 mm 6 m/s 743 mmHg 64%
    12:00 +17°C° 0 mm 6 m/s 744 mmHg 61%
    13:00 +17°C° 0 mm 6 m/s 744 mmHg 58%
    14:00 +17°C° 0 mm 6 m/s 744 mmHg 56%
    15:00 +16°C° 0 mm 6 m/s 745 mmHg 54%
    16:00 +15°C° 0 mm 6 m/s 745 mmHg 52%
    17:00 +15°C° 0 mm 6 m/s 745 mmHg 51%
    18:00 +13°C° 0 mm 5 m/s 746 mmHg 50%
    19:00 +10°C° 0 mm 5 m/s 747 mmHg 50%
    20:00 +8°C° 0 mm 5 m/s 747 mmHg 50%
    21:00 +7°C° 0 mm 5 m/s 748 mmHg 50%
    22:00 +6°C° 0 mm 5 m/s 748 mmHg 51%
    23:00 +6°C° 0 mm 5 m/s 749 mmHg 51%

    29 Abril, Segunda-feira

    Tempo Temperatura Precipitação Vento Pressão Humidade
    00:00 +5°C° 0 mm 5 m/s 749 mmHg 53%
    01:00 +4°C° 0 mm 4 m/s 749 mmHg 55%
    02:00 +4°C° 0 mm 4 m/s 749 mmHg 57%
    03:00 +3°C° 0 mm 4 m/s 750 mmHg 60%
    04:00 +3°C° 0 mm 4 m/s 750 mmHg 62%
    05:00 +1°C° 0 mm 4 m/s 750 mmHg 64%
    06:00 +3°C° 0 mm 4 m/s 750 mmHg 61%
    07:00 +5°C° 0 mm 5 m/s 750 mmHg 57%
    08:00 +6°C° 0 mm 5 m/s 750 mmHg 53%
    09:00 +7°C° 0 mm 5 m/s 750 mmHg 50%
    10:00 +8°C° 0 mm 5 m/s 750 mmHg 46%
    11:00 +9°C° 0 mm 5 m/s 750 mmHg 43%
    12:00 +10°C° 0 mm 5 m/s 750 mmHg 41%
    13:00 +12°C° 0 mm 5 m/s 750 mmHg 40%
    14:00 +12°C° 0 mm 5 m/s 750 mmHg 38%
    15:00 +12°C° 0 mm 4 m/s 749 mmHg 38%
    16:00 +12°C° 0 mm 4 m/s 749 mmHg 39%
    17:00 +12°C° 0 mm 4 m/s 749 mmHg 39%
    18:00 +10°C° 0 mm 3 m/s 749 mmHg 44%
    19:00 +8°C° 0 mm 3 m/s 749 mmHg 50%
    20:00 +7°C° 0 mm 2 m/s 749 mmHg 55%
    21:00 +6°C° 0 mm 2 m/s 749 mmHg 56%
    22:00 +5°C° 0 mm 2 m/s 749 mmHg 58%
    23:00 +5°C° 0 mm 2 m/s 749 mmHg 59%

    30 Abril, Terça-feira

    Tempo Temperatura Precipitação Vento Pressão Humidade
    00:00 +4°C° 0 mm 2 m/s 749 mmHg 61%
    01:00 +4°C° 0 mm 2 m/s 749 mmHg 63%
    02:00 +3°C° 0 mm 2 m/s 749 mmHg 64%
    03:00 +3°C° 0 mm 2 m/s 749 mmHg 65%
    04:00 +3°C° 0 mm 2 m/s 748 mmHg 67%
    05:00 +2°C° 0 mm 2 m/s 748 mmHg 68%
    06:00 +4°C° 0 mm 2 m/s 748 mmHg 62%
    07:00 +6°C° 0 mm 2 m/s 748 mmHg 56%
    08:00 +8°C° 0 mm 3 m/s 748 mmHg 50%
    09:00 +10°C° 0 mm 3 m/s 748 mmHg 46%
    10:00 +11°C° 0 mm 3 m/s 747 mmHg 42%
    11:00 +12°C° 0 mm 3 m/s 747 mmHg 38%
    12:00 +12°C° 0 mm 3 m/s 747 mmHg 37%
    13:00 +13°C° 0 mm 3 m/s 746 mmHg 36%
    14:00 +13°C° 0 mm 3 m/s 746 mmHg 35%
    15:00 +14°C° 0 mm 2 m/s 746 mmHg 36%
    16:00 +14°C° 0 mm 2 m/s 745 mmHg 37%
    17:00 +14°C° 0 mm 2 m/s 745 mmHg 38%
    18:00 +12°C° 0 mm 1 m/s 745 mmHg 42%
    19:00 +11°C° 0 mm 1 m/s 745 mmHg 46%
    20:00 +9°C° 0 mm 1 m/s 745 mmHg 50%
    21:00 +9°C° 0 mm 1 m/s 745 mmHg 50%
    22:00 +9°C° 0 mm 1 m/s 745 mmHg 50%
    23:00 +9°C° 0 mm 1 m/s 744 mmHg 50%

    1 Maio, Quarta-feira

    Tempo Temperatura Precipitação Vento Pressão Humidade
    00:00 +9°C° 0 mm 1 m/s 744 mmHg 51%
    01:00 +8°C° 0 mm 1 m/s 744 mmHg 53%
    02:00 +8°C° 0 mm 1 m/s 744 mmHg 54%
    03:00 +8°C° 0 mm 1 m/s 744 mmHg 57%
    04:00 +7°C° 0 mm 1 m/s 744 mmHg 59%
    05:00 +7°C° 0 mm 1 m/s 744 mmHg 61%
    06:00 +8°C° 0 mm 1 m/s 744 mmHg 58%
    07:00 +10°C° 0 mm 1 m/s 743 mmHg 54%
    08:00 +11°C° 0 mm 1 m/s 743 mmHg 50%
    09:00 +12°C° 0 mm 2 m/s 743 mmHg 46%
    10:00 +13°C° 0 mm 2 m/s 743 mmHg 42%
    11:00 +14°C° 0 mm 2 m/s 743 mmHg 37%
    12:00 +14°C° 0 mm 2 m/s 743 mmHg 37%
    13:00 +14°C° 0 mm 2 m/s 742 mmHg 38%
    14:00 +14°C° 0 mm 2 m/s 742 mmHg 38%
    15:00 +14°C° 0 mm 1 m/s 742 mmHg 39%
    16:00 +14°C° 0 mm 1 m/s 741 mmHg 40%
    17:00 +14°C° 0 mm 1 m/s 741 mmHg 42%
    18:00 +12°C° 0 mm 1 m/s 741 mmHg 46%
    19:00 +11°C° 0 mm 1 m/s 741 mmHg 50%
    20:00 +9°C° 0 mm 1 m/s 740 mmHg 55%
    21:00 +9°C° 0 mm 1 m/s 740 mmHg 56%
    22:00 +8°C° 0 mm 1 m/s 740 mmHg 57%
    23:00 +8°C° 0 mm 1 m/s 740 mmHg 59%
    Mostrar mais